[[{"header":{"parameterUnit":"m.s-1","parameterCategory":1,"la1":30.2991,"la2":30.254,"lo1":-89.0895,"lo2":-89.0444,"dy":0.0017,"dx":0.0017,"nx":28,"ny":28,"refTime":"2026-01-10T09:00:00:Z","depth":0,"parameterNumber":2,"parameterNumberName":"U-component_of_WINDS"},"data":[0,0,0,0,0,0,0,0,0,0,0,0,0,0,0,0,0,0,0,0,0,0,0,0,0,0,0,0,0,0,0,0,0,0,0,0,0,0,0,0,0,0,0,0,0,0,0,0,0,0,0,0,0,0,0,0,0,0,-2.7512,-2.7513,0,-2.7578,-2.7579,-2.7579,-2.7516,-2.7514,-2.7511,-2.7509,-2.7575,-2.7579,-2.7583,0,0,0,0,0,0,0,0,0,0,0,0,0,-2.7331,-2.7334,-2.7512,-2.7513,-2.7514,-2.7578,-2.7579,-2.7579,-2.7516,-2.7513,-2.751,-2.7507,-2.7574,-2.7579,-2.7584,0,0,0,0,0,0,0,0,0,0,0,0,0,-2.7404,-2.7336,-2.7512,-2.749,-2.7489,-2.7578,-2.7579,-2.758,-2.7517,-2.7513,-2.751,-2.7506,-2.7572,-2.7578,-2.7584,-2.7698,0,0,-2.7603,-2.7606,0,0,0,0,0,0,0,0,-2.74,-2.7411,-2.7492,-2.7492,-2.749,-2.7535,-2.7539,-2.7619,-2.7518,-2.7506,-2.7509,-2.7504,-2.7565,-2.7571,-2.7592,-2.7701,-2.7704,-2.7604,-2.7608,-2.761,-2.7612,0,0,0,0,0,0,0,-2.7395,-2.7408,-2.7538,-2.7494,-2.7493,-2.7476,-2.7483,-2.7554,-2.7556,-2.7507,-2.7503,-2.7511,-2.7564,-2.7586,-2.7593,-2.7705,-2.7604,-2.7609,-2.7613,-2.7615,-2.7909,-2.7913,0,0,0,0,0,0,-2.7393,-2.7404,-2.7536,-2.754,-2.7435,-2.7483,-2.749,-2.7524,-2.7555,-2.7556,-2.7514,-2.7508,-2.7577,-2.7586,-2.7595,-2.773,-2.761,-2.7616,-2.7619,-2.7905,-2.791,-2.7914,0,0,0,0,0,0,-2.7389,-2.7405,-2.7533,-2.7471,-2.7486,-2.749,-2.7529,-2.7528,-2.755,-2.7561,-2.756,-2.7537,-2.7575,-2.7586,-2.7673,-2.7731,-2.7619,-2.7624,-2.79,-2.7907,-2.7912,-2.8,0,0,0,0,0,0,-2.7384,-2.7404,-2.7448,-2.7472,-2.749,-2.7611,-2.7533,-2.7532,-2.7561,-2.7554,-2.7582,-2.7583,-2.7573,-2.7664,-2.7679,-2.7738,-2.7629,-2.7895,-2.7903,-2.791,-2.7992,-2.8008,-2.8023,0,0,0,0,0,-2.7378,-2.747,-2.745,-2.7467,-2.7544,-2.7614,-2.7624,-2.761,-2.7566,-2.761,-2.7616,-2.7582,-2.7722,-2.7673,-2.769,-2.7751,-2.7891,-2.7901,-2.791,-2.7985,-2.8005,-2.8022,0,0,0,0,0,0,-2.7452,-2.7473,-2.7451,-2.7554,-2.7583,-2.7603,-2.7658,-2.7632,-2.7674,-2.7665,-2.7646,-2.7653,-2.7744,-2.7756,-2.7701,-2.7862,-2.7799,-2.7812,-2.7851,-2.787,-2.7885,-2.7881,-2.7634,0,0,0,0,0,-2.7481,-2.7536,-2.7551,-2.764,-2.7656,-2.7655,-2.7684,-2.7671,-2.77,-2.7712,-2.7725,-2.7754,-2.7804,-2.7838,-2.7884,-2.7993,-2.7998,-2.8043,-2.8058,-2.8071,-2.8083,-2.814,-2.816,-2.7945,-2.7945,-2.7945,0,0,-2.754,-2.7558,-2.7594,-2.7656,-2.7676,-2.7733,-2.7665,-2.7729,-2.7771,-2.7721,-2.7804,-2.7814,-2.7845,-2.7943,-2.7986,-2.7955,-2.8143,-2.8083,-2.8093,-2.8097,-2.8151,-2.8172,-2.819,-2.7951,-2.795,-2.7949,0,0,-2.7677,-2.7697,-2.7773,-2.7795,-2.7827,-2.7826,-2.7844,-2.7868,-2.7873,-2.7955,-2.7919,-2.7968,-2.8056,-2.8079,-2.8102,-2.8247,-2.8217,-2.8263,-2.8343,-2.8399,-2.8416,-2.8431,-2.8483,-2.8501,-2.8274,-2.8274,-2.8275,0,-2.7747,-2.7832,-2.7816,-2.7882,-2.791,-2.7867,-2.7944,-2.7966,-2.8012,-2.8031,-2.7996,-2.8104,-2.8122,-2.8224,-2.8259,-2.828,-2.8299,-2.826,-2.8415,-2.843,-2.8444,-2.8492,-2.8512,-2.828,-2.8279,-2.8279,-2.8278,0,-2.7916,-2.7976,-2.8034,-2.8079,-2.8113,-2.8184,-2.8178,-2.8214,-2.8197,-2.8199,-2.8283,-2.8303,-2.8353,-2.8376,-2.836,-2.8476,-2.8455,-2.8418,-2.8355,-2.847,-2.8515,-2.8534,-2.8287,-2.8285,-2.8284,-2.8283,0,0,-2.8104,-2.8138,-2.816,-2.8179,-2.8211,-2.8256,-2.8325,-2.8374,-2.8405,-2.8438,-2.8495,-2.8569,-2.8534,-2.856,-2.8547,-2.8596,-2.8709,-2.8553,-2.8553,-2.8581,-2.8837,-2.8865,-2.8887,-2.8689,-2.8693,-2.8696,-2.8834,0,-2.8242,-2.8362,-2.8349,-2.8463,-2.8517,-2.8477,-2.8536,-2.8562,-2.8565,-2.8611,-2.8614,-2.8667,-2.8618,-2.8633,-2.868,-2.8686,-2.876,-2.8675,-2.8742,-2.8744,-2.8736,-2.8911,-2.8941,-2.9071,-2.8852,-2.8855,-2.8857,0,-2.842,-2.8459,-2.8579,-2.8601,-2.8624,-2.8678,-2.8721,-2.8765,-2.8793,-2.8792,-2.8821,-2.8799,-2.8867,-2.8802,-2.8895,-2.8837,-2.8863,-2.887,-2.8874,-2.888,-2.8808,-2.8922,-2.9112,-2.9132,-2.8885,-2.8883,-2.8881,0,-2.8545,-2.8627,-2.8709,-2.8727,-2.8756,-2.8794,-2.8808,-2.8832,-2.8861,-2.8899,-2.8918,-2.8962,-2.8987,-2.9022,-2.9012,-2.8965,-2.9107,-2.9041,-2.9107,-2.9108,-2.914,-2.9138,-2.9337,-2.9156,-2.9156,-2.9155,-2.9155,0,-2.8702,-2.8776,-2.8766,-2.8816,-2.8899,-2.8881,-2.8963,-2.8971,-2.8993,-2.9044,-2.9011,-2.9059,-2.9043,-2.909,-2.9082,-2.916,-2.9172,-2.9172,-2.9169,-2.9175,-2.9175,-2.9192,-2.9183,-2.9161,-2.9159,-2.9158,-2.9158,0,-2.8855,-2.8851,-2.8938,-2.8957,-2.8964,-2.9024,-2.904,-2.9087,-2.9087,-2.9152,-2.9166,-2.9166,-2.922,-2.9213,-2.9273,-2.9267,-2.9364,-2.935,-2.9355,-2.9352,-2.9419,-2.9413,-2.9637,-2.9665,-2.9465,-2.9467,-2.9469,0,-2.8956,-2.9012,-2.9037,-2.9069,-2.9086,-2.9137,-2.9167,-2.9152,-2.9185,-2.922,-2.9262,-2.9313,-2.9353,-2.944,-2.9446,-2.9491,-2.9478,-2.9553,-2.9484,-2.9488,-2.9479,-2.9476,-2.9481,-2.9567,-2.9569,-2.9571,-2.9572,0,-2.9134,-2.9129,-2.9174,-2.9218,-2.9255,-2.9289,-2.932,-2.9347,-2.9335,-2.9373,-2.9427,-2.9458,-2.9519,-2.957,-2.9612,-2.9625,-2.9597,-2.9594,-2.9611,-2.9619,-2.9619,-2.9619,-2.9393,-2.9589,-2.9587,-2.9586,-2.9585,-2.9585,-2.9264,-2.9312,-2.9337,-2.9388,-2.941,-2.9439,-2.9484,-2.9489,-2.9535,-2.9583,-2.9571,-2.9632,-2.9657,-2.9711,-2.9728,-2.9776,-2.9748,-2.9774,-2.978,-2.9787,-2.9795,-2.9611,-2.9783,-2.9783,-2.9782,-2.9782,-2.9782,0,-2.9441,-2.9455,-2.9502,-2.9545,-2.9585,-2.9555,-2.9587,-2.9622,-2.9677,-2.9702,-2.9742,-2.9804,-2.9852,-2.9861,-2.9907,-2.9943,-2.9931,-2.9956,-2.9953,-2.9956,-2.9817,-2.9797,-2.9964,-2.9964,-2.9964,-2.9964,-2.9964,-2.9964,-2.9538,-2.9617,-2.9615,-2.9704,-2.9717,-2.9778,-2.9798,-2.9825,-2.9845,-2.9916,-2.9956,-2.9961,-2.998,-3.0026,-3.0069,-3.007,-3.0088,-3.0118,-3.0114,-2.9984,-2.9966,-2.9949,-2.993,-3.0122,-3.0122,-3.0249,-3.025,-3.0251]},{"header":{"parameterUnit":"m.s-1","parameterCategory":1,"la1":30.2991,"la2":30.254,"lo1":-89.0895,"lo2":-89.0444,"dy":0.0017,"dx":0.0017,"nx":28,"ny":28,"refTime":"2026-01-10T09:00:00:Z","depth":0,"parameterNumber":3,"parameterNumberName":"V-component_of_WINDS"},"data":[0,0,0,0,0,0,0,0,0,0,0,0,0,0,0,0,0,0,0,0,0,0,0,0,0,0,0,0,0,0,0,0,0,0,0,0,0,0,0,0,0,0,0,0,0,0,0,0,0,0,0,0,0,0,0,0,0,0,-7.2063,-7.2064,0,-7.2185,-7.2187,-7.2188,-7.2102,-7.2098,-7.2094,-7.2091,-7.221,-7.2217,-7.2224,0,0,0,0,0,0,0,0,0,0,0,0,0,-7.1748,-7.1754,-7.2063,-7.2064,-7.2066,-7.2185,-7.2187,-7.2188,-7.2103,-7.2098,-7.2093,-7.2089,-7.2208,-7.2216,-7.2224,0,0,0,0,0,0,0,0,0,0,0,0,0,-7.1879,-7.1756,-7.2062,-7.2037,-7.2036,-7.2185,-7.2187,-7.2189,-7.2104,-7.2098,-7.2092,-7.2087,-7.2206,-7.2215,-7.2225,-7.2404,0,0,-7.2257,-7.2261,0,0,0,0,0,0,0,0,-7.1871,-7.189,-7.204,-7.2039,-7.2039,-7.2123,-7.212,-7.2261,-7.2105,-7.2078,-7.209,-7.2084,-7.2186,-7.2197,-7.2232,-7.2409,-7.2414,-7.2257,-7.2264,-7.2268,-7.2271,0,0,0,0,0,0,0,-7.1862,-7.1885,-7.2111,-7.2042,-7.2041,-7.2018,-7.203,-7.2146,-7.2162,-7.208,-7.2074,-7.209,-7.2184,-7.2223,-7.2235,-7.2416,-7.2257,-7.2266,-7.2272,-7.2276,-7.2743,-7.2749,0,0,0,0,0,0,-7.1856,-7.1878,-7.2107,-7.2115,-7.1939,-7.2028,-7.2042,-7.2101,-7.2161,-7.2165,-7.2095,-7.2085,-7.2208,-7.2223,-7.2238,-7.245,-7.2268,-7.2277,-7.2283,-7.2737,-7.2744,-7.2751,0,0,0,0,0,0,-7.185,-7.1878,-7.2102,-7.1995,-7.2021,-7.204,-7.2107,-7.2107,-7.2146,-7.2172,-7.2174,-7.2132,-7.2204,-7.2224,-7.2363,-7.2453,-7.2282,-7.2291,-7.2729,-7.2739,-7.2748,-7.2875,0,0,0,0,0,0,-7.1841,-7.1876,-7.1945,-7.1997,-7.2028,-7.2227,-7.2113,-7.2113,-7.2164,-7.2153,-7.2207,-7.2211,-7.2201,-7.2348,-7.2373,-7.2464,-7.2299,-7.2721,-7.2734,-7.2745,-7.2863,-7.2888,-7.2909,0,0,0,0,0,-7.183,-7.1975,-7.1949,-7.1978,-7.2115,-7.2233,-7.225,-7.2238,-7.2172,-7.224,-7.2257,-7.2209,-7.2439,-7.2363,-7.2391,-7.2486,-7.2715,-7.273,-7.2744,-7.2853,-7.2883,-7.2908,0,0,0,0,0,0,-7.1932,-7.1982,-7.1953,-7.212,-7.2173,-7.2218,-7.2304,-7.227,-7.2342,-7.2328,-7.2308,-7.2321,-7.2467,-7.249,-7.2404,-7.266,-7.2566,-7.2587,-7.264,-7.2669,-7.2691,-7.2682,-7.2308,0,0,0,0,0,-7.1974,-7.2068,-7.2105,-7.2248,-7.2276,-7.2286,-7.2337,-7.2323,-7.2376,-7.2398,-7.2425,-7.2476,-7.256,-7.2616,-7.2694,-7.2866,-7.2875,-7.2944,-7.2967,-7.2986,-7.3003,-7.3094,-7.3125,-7.2798,-7.2797,-7.2797,0,0,-7.2062,-7.21,-7.216,-7.227,-7.2309,-7.2404,-7.2306,-7.241,-7.248,-7.2413,-7.2546,-7.2568,-7.2624,-7.278,-7.285,-7.2804,-7.3096,-7.3004,-7.3019,-7.3026,-7.3112,-7.3143,-7.3171,-7.2807,-7.2805,-7.2804,0,0,-7.227,-7.2309,-7.2432,-7.2474,-7.2536,-7.2541,-7.2571,-7.2621,-7.2633,-7.2767,-7.2718,-7.2799,-7.2945,-7.2986,-7.3027,-7.325,-7.3207,-7.3276,-7.3396,-7.3484,-7.351,-7.3533,-7.3611,-7.364,-7.3293,-7.3293,-7.3294,0,-7.237,-7.2514,-7.2499,-7.2608,-7.2657,-7.2602,-7.2725,-7.2766,-7.2849,-7.2883,-7.2831,-7.3011,-7.3045,-7.3209,-7.3264,-7.3299,-7.333,-7.3269,-7.3508,-7.3531,-7.3552,-7.3626,-7.3656,-7.3301,-7.33,-7.33,-7.3299,0,-7.2633,-7.2733,-7.2825,-7.2909,-7.2968,-7.3083,-7.3085,-7.3145,-7.3126,-7.3136,-7.3272,-7.3311,-7.3396,-7.3434,-7.3416,-7.3596,-7.3565,-7.3511,-7.3416,-7.3591,-7.3661,-7.3689,-7.3313,-7.331,-7.3307,-7.3305,0,0,-7.2909,-7.2984,-7.3018,-7.3054,-7.3118,-7.3194,-7.3306,-7.3391,-7.3443,-7.3502,-7.3594,-7.3718,-7.3668,-7.3714,-7.3699,-7.3777,-7.395,-7.3713,-7.3714,-7.3755,-7.4149,-7.4189,-7.4223,-7.3922,-7.3928,-7.3932,-7.4144,0,-7.312,-7.3318,-7.3308,-7.3492,-7.3583,-7.3532,-7.3629,-7.3677,-7.369,-7.3767,-7.3779,-7.3867,-7.3795,-7.3822,-7.3898,-7.3913,-7.4029,-7.3898,-7.4006,-7.401,-7.3994,-7.4259,-7.4302,-7.45,-7.4171,-7.4176,-7.4179,0,-7.3392,-7.3463,-7.3657,-7.3706,-7.3744,-7.3832,-7.3908,-7.3983,-7.4036,-7.4039,-7.4091,-7.4063,-7.4173,-7.4077,-7.4228,-7.4139,-7.4182,-7.4197,-7.4204,-7.4213,-7.4105,-7.4275,-7.4563,-7.4593,-7.4222,-7.4219,-7.4216,0,-7.3573,-7.3716,-7.385,-7.3883,-7.3944,-7.4007,-7.4035,-7.4082,-7.4134,-7.4199,-7.4232,-7.431,-7.4352,-7.4411,-7.4404,-7.4335,-7.4558,-7.4461,-7.4562,-7.4562,-7.4611,-7.4608,-7.491,-7.464,-7.464,-7.4639,-7.4639,0,-7.381,-7.393,-7.3932,-7.4015,-7.4148,-7.4134,-7.4265,-7.4285,-7.4328,-7.4412,-7.4371,-7.445,-7.4437,-7.4515,-7.451,-7.4636,-7.4655,-7.4659,-7.4656,-7.4663,-7.4662,-7.4691,-7.4676,-7.4647,-7.4645,-7.4644,-7.4643,0,-7.4034,-7.4041,-7.4184,-7.423,-7.4244,-7.434,-7.4378,-7.4455,-7.4464,-7.457,-7.4594,-7.4608,-7.4698,-7.4697,-7.4799,-7.4796,-7.4949,-7.4931,-7.4932,-7.4928,-7.5029,-7.502,-7.536,-7.5403,-7.5106,-7.5109,-7.5111,0,-7.4184,-7.4276,-7.4332,-7.4387,-7.4419,-7.4507,-7.4559,-7.4549,-7.4604,-7.4671,-7.474,-7.4827,-7.4896,-7.5042,-7.5059,-7.5136,-7.5119,-7.5233,-7.513,-7.5134,-7.512,-7.5114,-7.5123,-7.5253,-7.5256,-7.5259,-7.5261,0,-7.445,-7.4448,-7.4527,-7.4607,-7.4671,-7.4733,-7.479,-7.4836,-7.4831,-7.4895,-7.4988,-7.5042,-7.5147,-7.5233,-7.5308,-7.5333,-7.5297,-7.5293,-7.5321,-7.5328,-7.5325,-7.5327,-7.4986,-7.5285,-7.5283,-7.5281,-7.528,-7.5279,-7.4641,-7.472,-7.4772,-7.486,-7.4902,-7.4956,-7.5031,-7.5049,-7.5127,-7.5213,-7.5201,-7.5305,-7.5353,-7.545,-7.5482,-7.5561,-7.5521,-7.5561,-7.5571,-7.5581,-7.5592,-7.5313,-7.5575,-7.5574,-7.5573,-7.5573,-7.5572,0,-7.4904,-7.4935,-7.5016,-7.5098,-7.5167,-7.5128,-7.5188,-7.5248,-7.534,-7.539,-7.5459,-7.5564,-7.5647,-7.5671,-7.5751,-7.5809,-7.5794,-7.583,-7.5826,-7.5832,-7.5624,-7.5592,-7.5841,-7.5841,-7.5841,-7.5841,-7.5841,-7.5841,-7.5049,-7.518,-7.5185,-7.5335,-7.5364,-7.5467,-7.5505,-7.5553,-7.5593,-7.5713,-7.5783,-7.5799,-7.5837,-7.5919,-7.5993,-7.5997,-7.6028,-7.6071,-7.6069,-7.5874,-7.5847,-7.5821,-7.5791,-7.6078,-7.6079,-7.627,-7.6272,-7.6274]}]]